STARLINK-35550, 66267

Orbit data source: Space-Track

STARLINK-35550, 66267 is a payload satellite owned by SpaceX/Seattle (US) in LEO that was launched on Fri, 31 Oct 2025 UTC via an FALCON 9 launch vehicle from the Air Force Western Test Range (AFWTR). Payload-class satellites include a variety of spacecraft equipped with specific instruments for various scientific and technological missions. These include communications satellites like Starlink; space stations such as the ISS; scientific satellites like the Hubble; Earth observation satellites from companies like Planet Labs, Umbra, and HawkEye 360; GPS; miniature CubeSats for education and research; and military/defense satellites.

Loading next visibility...
Identifier
66267, 2025-247C
Orbit
LEO
Country
Flag of USUS
Related business
Manufacturer
SpaceX/Seattle
Mission
Operational Commercial Communications
Bus & Motor
STARLINK V2MO, Unknown motor
Mass
575 kg wet, ~530 kg dry
Launch date (UTC)
2025-10-31 (8 months ago)
Launch vehicle
FALCON 9
Launch site
Air Force Western Test Range (AFWTR)
Object type
Payload
Rocket body
Debris
Shape & HBR
Box + 2 Pan, 17.7 m
Radar Cross Section
36.964 m², Large (>1 m²)

Expand to show TLE details & history
Last TLE update: 22 hours ago

TLE from 22 hours ago
0 STARLINK-35550
1 66267U 25247C   26170.92686516  .00031616  00000-0  94221-3 0  9994
2 66267  53.1596  74.6078 0001397  86.1427 273.9735 15.34423207 36712
Epoch: 2026-06-19T22:14Z
TLE epoch observation values (Epoch: 2026-06-19T22:14:41.149Z)
Latitude
-0.00006°
Longitude
-167.21253°
Altitude
463.469 km
Speed
7.636 km/s
True Right ascension
04h 58m 25s
True Declination
0° 00' 00"
Sunlit
Object was in daylight at epoch
Visualization orbit readout
Latitude
Unknown
Longitude
Unknown
Altitude
Unknown
Speed
Unknown
Apparent Right ascension
Unknown
Apparent Declination
Unknown
Sunlit
N/A
Visualization observer readout
Local Sidereal Time
07:18:00
Azimuth
Unknown
Elevation
Unknown
Doppler factor
Unknown
Orbital elements
Apogee altitude
463.847 km
Perigee altitude
461.936 km
Semi-major axis
6,841.028 km
Eccentricity
0.00014
Inclination
53.1596°
RAAN
74.6078°
Arg. of periapsis
86.1427°
True anomaly
273.95753°
Mean anomaly
273.9735°
Eccentric anomaly
273.96551°
Mean motion
3.83585 °/min
Orbital period
93.85 mins
BSTAR
0.00094221
Loading maneuver chart data...
Computing Atmospheric mass density...
Loading historical data...
Loading historical data...
Loading historical data...
Loading historical data...
Loading historical data...
Loading historical data...
Loading historical data...

Documentation

Showing up to 5 results
|